Weather History for High Island 179A, LA

Change the Weather History Date:

Sunday, September 15, 2013

  Actual Average Record
Temperature  
Mean Temperature 84 °F -  
Max Temperature 86 °F - - ()
Min Temperature 82 °F - - ()
Cooling Degree Days 19    
Growing Degree Days 34 (Base 50)    
Moisture  
Dew Point 74 °F    
Average Humidity 71    
Maximum Humidity 79    
Minimum Humidity 66    
Precipitation  
Precipitation 0.00 in - - ()
Sea Level Pressure  
Sea Level Pressure 29.93 in    
Wind  
Wind Speed 18 mph (SE)    
Max Wind Speed 25 mph    
Max Gust Speed 22 mph    
Visibility 9 miles    
Events      
T = Trace of Precipitation, MM = Missing Value Source: NWS Daily Summary

Daily Weather History Graph

Daily Weather History Graph

Search for Another Location

Airport:

Trip Planner

Search our weather history database for the weather conditions in past years. The results will help you decide how hot, cold, wet, or windy it might be!

Date:

Astronomy

Sep. 15, 2013 Rise Set
Actual Time 7:03 AM CDT 7:22 PM CDT
Civil Twilight 6:39 AM CDT 7:46 PM CDT
Nautical Twilight 6:11 AM CDT 8:14 PM CDT
Astronomical Twilight 5:43 AM CDT 8:42 PM CDT
Moon 4:37 PM CDT (9/15) 2:57 AM CDT (9/15)
Length of Visible Light 13h 07m
Length of Day
12h 19m
Waxing Gibbous, 82% of the Moon is Illuminated
Sep 15
Waxing Gibbous
Sep 19
Full
Sep 26
Last Quarter
Oct 4
New
Oct 11
First Quarter

Hourly Weather History & Observations

Time (CDT) Temp. Heat Index Dew Point Humidity Pressure Visibility Wind Dir Wind Speed Gust Speed Precip Events Conditions
12:15 AM 82.4 °F 89.5 °F 75.2 °F 79% 29.90 in 10.0 mi SE 18.4 mph - N/A   Unknown
12:35 AM 82.4 °F 88.2 °F 73.4 °F 74% 29.90 in 10.0 mi SE 18.4 mph - N/A   Unknown
12:55 AM 82.4 °F 88.2 °F 73.4 °F 74% 29.89 in 10.0 mi SE 17.3 mph - N/A   Unknown
1:15 AM 82.4 °F 89.5 °F 75.2 °F 79% 29.89 in 10.0 mi SE 16.1 mph - N/A   Unknown
1:35 AM 84.2 °F 92.3 °F 75.2 °F 74% 29.89 in 10.0 mi ESE 17.3 mph - N/A   Unknown
1:55 AM 84.2 °F 90.9 °F 73.4 °F 70% 29.89 in 10.0 mi SE 17.3 mph - N/A   Unknown
2:15 AM 84.2 °F 92.3 °F 75.2 °F 74% 29.88 in 10.0 mi SE 19.6 mph - N/A   Unknown
2:35 AM 84.2 °F 92.3 °F 75.2 °F 74% 29.88 in 10.0 mi SE 19.6 mph - N/A   Unknown
2:55 AM 84.2 °F 90.9 °F 73.4 °F 70% 29.88 in 10.0 mi SE 18.4 mph - N/A   Unknown
3:15 AM 84.2 °F 90.9 °F 73.4 °F 70% 29.89 in 10.0 mi SE 18.4 mph - N/A   Scattered Clouds
3:35 AM 84.2 °F 90.9 °F 73.4 °F 70% 29.89 in 10.0 mi SE 17.3 mph - N/A   Partly Cloudy
3:55 AM 84.2 °F 90.9 °F 73.4 °F 70% 29.89 in 10.0 mi SE 16.1 mph - N/A   Clear
4:15 AM 84.2 °F 90.9 °F 73.4 °F 70% 29.89 in 10.0 mi SE 17.3 mph - N/A   Unknown
4:35 AM 84.2 °F 90.9 °F 73.4 °F 70% 29.89 in 10.0 mi SE 18.4 mph - N/A   Unknown
4:55 AM 84.2 °F 90.9 °F 73.4 °F 70% 29.89 in 10.0 mi SE 17.3 mph - N/A   Unknown
5:15 AM 84.2 °F 90.9 °F 73.4 °F 70% 29.89 in 10.0 mi SE 17.3 mph - N/A   Unknown
5:35 AM 84.2 °F 90.9 °F 73.4 °F 70% 29.89 in 10.0 mi SE 18.4 mph - N/A   Unknown
5:55 AM 84.2 °F 89.6 °F 71.6 °F 66% 29.90 in 10.0 mi SE 18.4 mph - N/A   Partly Cloudy
6:15 AM 84.2 °F 90.9 °F 73.4 °F 70% 29.91 in 10.0 mi SE 16.1 mph - N/A   Partly Cloudy
6:35 AM 84.2 °F 90.9 °F 73.4 °F 70% 29.91 in 10.0 mi SE 18.4 mph - N/A   Unknown
6:55 AM 84.2 °F 90.9 °F 73.4 °F 70% 29.91 in 10.0 mi ESE 18.4 mph - N/A   Unknown
7:15 AM 84.2 °F 90.9 °F 73.4 °F 70% 29.91 in 9.0 mi SE 16.1 mph - N/A   Clear
7:35 AM 84.2 °F 90.9 °F 73.4 °F 70% 29.91 in 9.0 mi SE 17.3 mph - N/A   Clear
7:55 AM 84.2 °F 90.9 °F 73.4 °F 70% 29.92 in 9.0 mi ESE 19.6 mph - N/A   Clear
8:15 AM 84.2 °F 90.9 °F 73.4 °F 70% 29.92 in 9.0 mi ESE 18.4 mph - N/A   Clear
8:35 AM 84.2 °F 90.9 °F 73.4 °F 70% 29.93 in 9.0 mi ESE 18.4 mph - N/A   Partly Cloudy
8:55 AM 84.2 °F 92.3 °F 75.2 °F 74% 29.93 in 9.0 mi ESE 18.4 mph - N/A   Scattered Clouds
9:15 AM 84.2 °F 90.9 °F 73.4 °F 70% 29.93 in 9.0 mi ESE 19.6 mph - N/A   Clear
9:35 AM 84.2 °F 92.3 °F 75.2 °F 74% 29.94 in 8.0 mi ESE 18.4 mph - N/A   Partly Cloudy
9:55 AM 84.2 °F 92.3 °F 75.2 °F 74% 29.95 in 9.0 mi ESE 18.4 mph - N/A   Clear
10:15 AM 84.2 °F 92.3 °F 75.2 °F 74% 29.96 in 9.0 mi SE 18.4 mph - N/A   Partly Cloudy
10:35 AM 84.2 °F 92.3 °F 75.2 °F 74% 29.97 in 8.0 mi SE 19.6 mph - N/A   Scattered Clouds
10:55 AM 84.2 °F 92.3 °F 75.2 °F 74% 29.97 in 9.0 mi SE 18.4 mph - N/A   Partly Cloudy
11:15 AM 86.0 °F 95.1 °F 75.2 °F 70% 29.98 in 9.0 mi SE 18.4 mph - N/A   Partly Cloudy
11:35 AM 86.0 °F 95.1 °F 75.2 °F 70% 29.98 in 8.0 mi SE 19.6 mph - N/A   Scattered Clouds
11:55 AM 86.0 °F 93.4 °F 73.4 °F 66% 29.97 in 9.0 mi ESE 18.4 mph - N/A   Partly Cloudy
12:15 PM 86.0 °F 95.1 °F 75.2 °F 70% 29.97 in 9.0 mi ESE 17.3 mph - N/A   Clear
12:35 PM 86.0 °F 95.1 °F 75.2 °F 70% 29.97 in 8.0 mi ESE 18.4 mph - N/A   Partly Cloudy
12:55 PM 86.0 °F 95.1 °F 75.2 °F 70% 29.97 in 7.0 mi ESE 18.4 mph - N/A   Partly Cloudy
1:15 PM 86.0 °F 95.1 °F 75.2 °F 70% 29.97 in 7.0 mi ESE 16.1 mph - N/A   Scattered Clouds
1:35 PM 86.0 °F 95.1 °F 75.2 °F 70% 29.96 in 9.0 mi SE 15.0 mph - N/A   Scattered Clouds
1:55 PM 86.0 °F 93.4 °F 73.4 °F 66% 29.96 in 8.0 mi SE 15.0 mph - N/A   Scattered Clouds
2:15 PM 86.0 °F 95.1 °F 75.2 °F 70% 29.95 in 9.0 mi ESE 17.3 mph - N/A   Partly Cloudy
2:35 PM 86.0 °F 95.1 °F 75.2 °F 70% 29.95 in 8.0 mi ESE 16.1 mph - N/A   Partly Cloudy
2:55 PM 86.0 °F 95.1 °F 75.2 °F 70% 29.94 in 7.0 mi ESE 15.0 mph - N/A   Scattered Clouds
3:15 PM 86.0 °F 95.1 °F 75.2 °F 70% 29.94 in 8.0 mi ESE 16.1 mph - N/A   Partly Cloudy
3:35 PM 82.4 °F 88.2 °F 73.4 °F 74% 29.94 in 4.0 mi ESE 15.0 mph 21.9 mph N/A   Haze
3:55 PM 86.0 °F 95.1 °F 75.2 °F 70% 29.93 in 7.0 mi ESE 17.3 mph - N/A   Clear
4:15 PM 86.0 °F 95.1 °F 75.2 °F 70% 29.93 in 8.0 mi ESE 18.4 mph - N/A   Clear
4:35 PM 86.0 °F 95.1 °F 75.2 °F 70% 29.93 in 8.0 mi ESE 18.4 mph - N/A   Partly Cloudy
4:55 PM 86.0 °F 95.1 °F 75.2 °F 70% 29.92 in 8.0 mi ESE 18.4 mph - N/A   Clear
5:15 PM 86.0 °F 95.1 °F 75.2 °F 70% 29.92 in 8.0 mi ESE 21.9 mph - N/A   Clear
5:35 PM 84.2 °F 90.9 °F 73.4 °F 70% 29.93 in 9.0 mi SE 18.4 mph - N/A   Scattered Clouds
5:55 PM 84.2 °F 92.3 °F 75.2 °F 74% 29.93 in 7.0 mi ESE 16.1 mph - N/A   Partly Cloudy
6:15 PM 84.2 °F 92.3 °F 75.2 °F 74% 29.94 in 7.0 mi ESE 18.4 mph - N/A   Clear
6:35 PM 84.2 °F 92.3 °F 75.2 °F 74% 29.94 in 7.0 mi SE 18.4 mph - N/A   Partly Cloudy
6:55 PM 84.2 °F 90.9 °F 73.4 °F 70% 29.94 in 7.0 mi ESE 19.6 mph - N/A   Partly Cloudy
7:15 PM 84.2 °F 90.9 °F 73.4 °F 70% 29.94 in 7.0 mi ESE 19.6 mph - N/A   Clear
7:35 PM 84.2 °F 90.9 °F 73.4 °F 70% 29.94 in 8.0 mi ESE 20.7 mph - N/A   Scattered Clouds
7:55 PM 84.2 °F 90.9 °F 73.4 °F 70% 29.95 in 9.0 mi ESE 19.6 mph - N/A   Clear
8:15 PM 84.2 °F 90.9 °F 73.4 °F 70% 29.95 in 8.0 mi SE 18.4 mph - N/A   Clear
8:35 PM 84.2 °F 90.9 °F 73.4 °F 70% 29.95 in 10.0 mi ESE 19.6 mph - N/A   Clear
8:55 PM 84.2 °F 90.9 °F 73.4 °F 70% 29.96 in 9.0 mi ESE 19.6 mph - N/A   Clear
9:15 PM 84.2 °F 92.3 °F 75.2 °F 74% 29.95 in 8.0 mi ESE 21.9 mph - N/A   Partly Cloudy
9:35 PM 84.2 °F 90.9 °F 73.4 °F 70% 29.96 in 8.0 mi SE 21.9 mph - N/A   Clear
9:55 PM 84.2 °F 92.3 °F 75.2 °F 74% 29.97 in 9.0 mi SE 23.0 mph - N/A   Scattered Clouds
10:15 PM 84.2 °F 92.3 °F 75.2 °F 74% 29.97 in 8.0 mi ESE 23.0 mph - N/A   Scattered Clouds
10:35 PM 84.2 °F 92.3 °F 75.2 °F 74% 29.97 in 8.0 mi ESE 21.9 mph - N/A   Partly Cloudy
10:55 PM 84.2 °F 92.3 °F 75.2 °F 74% 29.97 in 7.0 mi SE 21.9 mph - N/A   Unknown
11:15 PM 84.2 °F 90.9 °F 73.4 °F 70% 29.97 in 8.0 mi SE 23.0 mph - N/A   Unknown
11:35 PM 84.2 °F 92.3 °F 75.2 °F 74% 29.97 in 8.0 mi SE 21.9 mph - N/A   Unknown
11:55 PM 84.2 °F 90.9 °F 73.4 °F 70% 29.97 in 8.0 mi SE 25.3 mph - N/A   Unknown